W6ACT Weather Reports


time (UTC)temp
C
wind
direction
speed
KPH
gust
KPH
rain 1hr
cm
rain 24hr
cm
rain mn
cm
humidity
%
barometer
mb
20260902024527 17 261 4.8 16.1 0.00 0.00 0.00 66 1016.0
20260902024038 17 252 6.4 19.3 0.00 0.00 0.00 65 1015.9
20260902023527 17 212 6.4 19.3 0.00 0.00 0.00 65 1015.9
20260902023027 18 312 6.4 19.3 0.00 0.00 0.00 64 1015.8
20260902022527 18 226 8.0 24.1 0.00 0.00 0.00 63 1015.7
20260902022027 18 210 8.0 24.1 0.00 0.00 0.00 63 1015.7
20260902021526 18 239 4.8 17.7 0.00 0.00 0.00 62 1015.7
20260902021020 18 242 6.4 20.9 0.00 0.00 0.00 61 1015.6
20260902020810 18 285 9.7 20.9 0.00 0.00 0.00 60 1015.6
20260902020008 18 212 8.0 20.9 0.00 0.00 0.00 60 1015.5
20260902015503 18 251 9.7 22.5 0.00 0.00 0.00 60 1015.5
20260902014956 18 241 11.3 29.0 0.00 0.00 0.00 60 1015.4
20260902014451 19 251 11.3 29.0 0.00 0.00 0.00 60 1015.4
20260902013945 19 221 12.9 27.4 0.00 0.00 0.00 59 1015.3
20260902013438 19 259 9.7 24.1 0.00 0.00 0.00 58 1015.3
20260902012933 19 275 11.3 25.7 0.00 0.00 0.00 57 1015.3
20260902012426 19 261 11.3 25.7 0.00 0.00 0.00 55 1015.3
20260902011921 20 261 11.3 22.5 0.00 0.00 0.00 55 1015.3
20260902011414 20 284 8.0 27.4 0.00 0.00 0.00 54 1015.3
20260902011204 20 283 9.7 22.5 0.00 0.00 0.00 54 1015.2
20260902010402 20 260 11.3 33.8 0.00 0.00 0.00 54 1015.2
20260902005856 20 249 11.3 33.8 0.00 0.00 0.00 54 1015.2
20260902005351 20 233 12.9 33.8 0.00 0.00 0.00 54 1015.2
20260902004845 20 249 11.3 33.8 0.00 0.00 0.00 53 1015.3
20260902004338 20 234 11.3 25.7 0.00 0.00 0.00 52 1015.2
20260902003833 20 268 11.3 32.2 0.00 0.00 0.00 50 1015.2
20260902003326 20 203 9.7 32.2 0.00 0.00 0.00 50 1015.2
20260902002821 21 268 11.3 29.0 0.00 0.00 0.00 50 1015.2
20260902002314 21 214 9.7 27.4 0.00 0.00 0.00 49 1015.2
20260902001808 21 218 9.7 24.1 0.00 0.00 0.00 49 1015.2
20260902001302 21 189 9.7 24.1 0.00 0.00 0.00 48 1015.2
20260902001052 21 195 11.3 20.9 0.00 0.00 0.00 49 1015.2
20260902000250 21 220 11.3 33.8 0.00 0.00 0.00 48 1015.2
20260901235745 21 226 11.3 29.0 0.00 0.00 0.00 47 1015.2
20260901235239 21 271 11.3 25.7 0.00 0.00 0.00 48 1015.2
20260901234733 22 280 12.9 25.7 0.00 0.00 0.00 47 1015.2
20260901234227 22 208 11.3 25.7 0.00 0.00 0.00 48 1015.1
20260901233721 21 204 11.3 25.7 0.00 0.00 0.00 47 1015.2
20260901233215 21 235 14.5 27.4 0.00 0.00 0.00 47 1015.2
20260901233003 21 216 14.5 27.4 0.00 0.00 0.00 47 1015.2
20260901232203 21 275 12.9 25.7 0.00 0.00 0.00 46 1015.2
20260901231657 21 235 14.5 30.6 0.00 0.00 0.00 47 1015.3
20260901231150 22 206 12.9 30.6 0.00 0.00 0.00 47 1015.3
20260901230645 22 233 12.9 27.4 0.00 0.00 0.00 47 1015.4
20260901230449 22 218 12.9 27.4 0.00 0.00 0.00 46 1015.4
20260901225632 22 235 11.3 25.7 0.00 0.00 0.00 46 1015.4
20260901225127 22 271 11.3 25.7 0.00 0.00 0.00 47 1015.5
20260901224620 22 231 11.3 25.7 0.00 0.00 0.00 47 1015.4
20260901224114 21 208 9.7 27.4 0.00 0.00 0.00 48 1015.3
20260901223901 22 253 9.7 27.4 0.00 0.00 0.00 47 1015.4
20260901223116 21 211 11.3 24.1 0.00 0.00 0.00 48 1015.4
20260901222557 22 236 11.3 27.4 0.00 0.00 0.00 47 1015.4
20260901222051 22 258 11.3 27.4 0.00 0.00 0.00 47 1015.5
20260901221544 22 254 11.3 25.7 0.00 0.00 0.00 47 1015.5
20260901221038 21 199 11.3 24.1 0.00 0.00 0.00 49 1015.6
20260901220533 22 264 12.9 24.1 0.00 0.00 0.00 48 1015.7
20260901220026 22 231 12.9 24.1 0.00 0.00 0.00 48 1015.7
20260901215521 22 248 11.3 24.1 0.00 0.00 0.00 48 1015.8
20260901215014 22 233 11.3 27.4 0.00 0.00 0.00 47 1015.8
20260901214802 22 298 11.3 27.4 0.00 0.00 0.00 47 1015.8
20260901214003 22 235 11.3 22.5 0.00 0.00 0.00 46 1015.8
20260901213456 22 236 11.3 22.5 0.00 0.00 0.00 45 1015.9
20260901212951 22 241 11.3 24.1 0.00 0.00 0.00 45 1015.7
20260901212738 22 253 12.9 24.1 0.00 0.00 0.00 47 1015.8
20260901211939 22 253 12.9 27.4 0.00 0.00 0.00 46 1015.8
20260901211432 22 256 11.3 27.4 0.00 0.00 0.00 47 1015.7
20260901211016 22 186 11.3 25.7 0.00 0.00 0.00 46 1015.7
20260901210956 22 261 9.7 20.9 0.00 0.00 0.00 45 1015.8
20260901205915 21 211 9.7 25.7 0.00 0.00 0.00 46 1015.8
20260901205409 21 235 8.0 20.9 0.00 0.00 0.00 46 1015.7
20260901204951 21 291 9.7 24.1 0.00 0.00 0.00 47 1015.7
20260901204930 22 222 8.0 24.1 0.00 0.00 0.00 46 1015.7
20260901203850 21 224 11.3 25.7 0.00 0.00 0.00 48 1015.8
20260901203639 21 293 11.3 25.7 0.00 0.00 0.00 47 1015.9
20260901202845 21 256 11.3 22.5 0.00 0.00 0.00 48 1016.0
20260901202343 21 186 11.3 22.5 0.00 0.00 0.00 50 1016.1
20260901201843 21 210 9.7 20.9 0.00 0.00 0.00 50 1016.2
20260901201344 21 280 8.0 19.3 0.00 0.00 0.00 50 1016.4
20260901200843 20 269 9.7 22.5 0.00 0.00 0.00 50 1016.3
20260901200344 21 250 11.3 22.5 0.00 0.00 0.00 48 1016.4
20260901195844 21 234 9.7 20.9 0.00 0.00 0.00 49 1016.4
20260901195344 21 265 9.7 20.9 0.00 0.00 0.00 49 1016.4
20260901194844 21 208 9.7 20.9 0.00 0.00 0.00 50 1016.5
20260901194344 20 237 9.7 20.9 0.00 0.00 0.00 50 1016.5
20260901193844 20 214 9.7 17.7 0.00 0.00 0.00 51 1016.6
20260901193340 20 256 8.0 19.3 0.00 0.00 0.00 51 1016.5
20260901192841 20 276 8.0 19.3 0.00 0.00 0.00 52 1016.6
20260901192354 20 271 9.7 16.1 0.00 0.00 0.00 54 1016.6
20260901191841 20 258 9.7 20.9 0.00 0.00 0.00 54 1016.6
20260901191356 20 214 9.7 22.5 0.00 0.00 0.00 53 1016.7
20260901190841 20 225 9.7 22.5 0.00 0.00 0.00 54 1016.6
20260901190342 20 211 9.7 20.9 0.00 0.00 0.00 55 1016.6
20260901190133 20 256 8.0 20.9 0.00 0.00 0.00 55 1016.7
20260901185330 20 245 8.0 20.9 0.00 0.00 0.00 55 1016.7
20260901184824 20 307 6.4 19.3 0.00 0.00 0.00 56 1016.8
20260901184612 19 238 6.4 19.3 0.00 0.00 0.00 57 1016.7
20260901183812 19 248 8.0 19.3 0.00 0.00 0.00 56 1016.8
20260901183306 20 227 8.0 20.9 0.00 0.00 0.00 57 1016.8
20260901182800 19 270 8.0 20.9 0.00 0.00 0.00 56 1016.8
20260901182253 19 266 8.0 17.7 0.00 0.00 0.00 57 1016.8
20260901182041 19 257 9.7 20.9 0.00 0.00 0.00 58 1016.7
20260901181242 19 219 6.4 20.9 0.00 0.00 0.00 57 1016.8
20260901180736 19 272 4.8 12.9 0.00 0.00 0.00 58 1016.7
20260901180230 18 253 4.8 16.1 0.00 0.00 0.00 57 1016.7
20260901175724 18 249 4.8 16.1 0.00 0.00 0.00 59 1016.7
20260901175218 18 240 6.4 17.7 0.00 0.00 0.00 58 1016.7
20260901174711 18 262 8.0 17.7 0.00 0.00 0.00 57 1016.6
20260901174458 18 266 8.0 17.7 0.00 0.00 0.00 57 1016.5
20260901173700 19 221 9.7 22.5 0.00 0.00 0.00 56 1016.5
20260901173447 20 247 8.0 22.5 0.00 0.00 0.00 55 1016.5
20260901172648 19 237 3.2 14.5 0.00 0.00 0.00 58 1016.4
20260901172451 18 257 4.8 14.5 0.00 0.00 0.00 60 1016.4
20260901171635 18 262 6.4 17.7 0.00 0.00 0.00 59 1016.3
20260901171129 17 239 8.0 20.9 0.00 0.00 0.00 59 1016.2
20260901170623 18 252 6.4 20.9 0.00 0.00 0.00 60 1016.2
20260901170122 18 235 4.8 17.7 0.00 0.00 0.00 61 1016.2
20260901165611 18 245 4.8 14.5 0.00 0.00 0.00 63 1016.1
20260901165106 18 247 6.4 16.1 0.00 0.00 0.00 62 1016.2
20260901164559 17 214 8.0 16.1 0.00 0.00 0.00 63 1016.2
20260901164054 17 202 6.4 14.5 0.00 0.00 0.00 63 1016.2
20260901163547 17 259 8.0 17.7 0.00 0.00 0.00 64 1016.1
20260901163041 17 223 9.7 22.5 0.00 0.00 0.00 63 1016.2
20260901162536 17 218 9.7 22.5 0.00 0.00 0.00 63 1016.1
20260901162029 17 218 9.7 20.9 0.00 0.00 0.00 63 1016.1
20260901161524 17 183 8.0 20.9 0.00 0.00 0.00 64 1016.1
20260901161018 17 228 4.8 17.7 0.00 0.00 0.00 64 1016.1
20260901160513 17 227 3.2 9.7 0.00 0.00 0.00 66 1016.1
20260901160302 17 235 6.4 17.7 0.00 0.00 0.00 67 1016.0
20260901155500 17 230 9.7 24.1 0.00 0.00 0.00 67 1016.0
20260901155248 17 212 9.7 24.1 0.00 0.00 0.00 67 1015.8
20260901154447 17 199 9.7 17.7 0.00 0.00 0.00 67 1015.8
20260901153942 17 215 9.7 17.7 0.00 0.00 0.00 68 1015.7
20260901153436 17 214 9.7 22.5 0.00 0.00 0.00 68 1015.6
20260901152930 17 164 8.0 22.5 0.00 0.00 0.00 69 1015.6
20260901152424 16 201 6.4 14.5 0.00 0.00 0.00 69 1015.6
20260901151917 16 229 8.0 16.1 0.00 0.00 0.00 69 1015.6
20260901151411 16 197 8.0 17.7 0.00 0.00 0.00 69 1015.6
20260901150905 16 201 6.4 17.7 0.00 0.00 0.00 69 1015.5
20260901150359 16 245 4.8 14.5 0.00 0.00 0.00 69 1015.5
20260901145857 16 201 4.8 14.5 0.00 0.00 0.00 69 1015.4
20260901145356 16 206 4.8 11.3 0.00 0.00 0.00 69 1015.4
20260901144907 16 200 4.8 11.3 0.00 0.00 0.00 69 1015.4
20260901144355 16 194 3.2 9.7 0.00 0.00 0.00 69 1015.3
20260901143945 16 185 4.8 14.5 0.00 0.00 0.00 70 1015.2
20260901143926 16 195 4.8 14.5 0.00 0.00 0.00 70 1015.3
20260901142853 16 209 4.8 11.3 0.00 0.00 0.00 70 1015.1
20260901142353 16 208 3.2 11.3 0.00 0.00 0.00 70 1015.1
20260901141945 15 210 3.2 12.9 0.00 0.00 0.00 71 1014.9
20260901141927 16 209 3.2 9.7 0.00 0.00 0.00 70 1015.0
20260901140851 15 175 1.6 12.9 0.00 0.00 0.00 71 1014.9
20260901140350 15 211 0.0 4.8 0.00 0.00 0.00 71 1014.8
20260901135846 15 211 1.6 8.0 0.00 0.00 0.00 71 1014.7
20260901135347 15 212 3.2 8.0 0.00 0.00 0.00 71 1014.6
20260901134847 15 212 1.6 6.4 0.00 0.00 0.00 71 1014.6
20260901134345 15 212 1.6 6.4 0.00 0.00 0.00 71 1014.5
20260901133846 15 212 3.2 9.7 0.00 0.00 0.00 71 1014.5
20260901133342 15 212 3.2 9.7 0.00 0.00 0.00 71 1014.4
20260901132844 15 182 0.0 6.4 0.00 0.00 0.00 72 1014.4
20260901132337 15 183 1.6 4.8 0.00 0.00 0.00 72 1014.4
20260901131831 15 183 1.6 4.8 0.00 0.00 0.00 72 1014.4
20260901131326 15 183 1.6 6.4 0.00 0.00 0.00 72 1014.4
20260901131131 15 183 1.6 6.4 0.00 0.00 0.00 72 1014.3
20260901130327 15 183 1.6 6.4 0.00 0.00 0.00 72 1014.3
20260901130115 15 183 1.6 6.4 0.00 0.00 0.00 72 1014.4
20260901125340 15 183 0.0 4.8 0.00 0.00 0.00 73 1014.4
20260901124826 15 183 0.0 1.6 0.00 0.00 0.00 73 1014.4
20260901124326 15 183 1.6 6.4 0.00 0.00 0.00 73 1014.3
20260901123826 15 183 1.6 6.4 0.00 0.00 0.00 73 1014.2
20260901123327 15 182 0.0 6.4 0.00 0.00 0.00 73 1014.1
20260901122828 15 183 0.0 1.6 0.00 0.00 0.00 73 1014.1
20260901122327 15 183 0.0 6.4 0.00 0.00 0.00 72 1014.1
20260901121828 15 183 1.6 9.7 0.00 0.00 0.00 72 1014.1
20260901121326 15 183 3.2 9.7 0.00 0.00 0.00 72 1014.0
20260901121116 15 187 3.2 8.0 0.00 0.00 0.00 72 1014.0
20260901120617 15 187 1.6 8.0 0.00 0.00 0.00 72 1014.0
20260901120122 15 187 1.6 9.7 0.00 0.00 0.00 72 1013.9
20260901115324 15 189 1.6 9.7 0.00 0.00 0.00 72 1014.1
20260901114824 15 189 3.2 9.7 0.00 0.00 0.00 73 1014.1
20260901114325 15 189 1.6 9.7 0.00 0.00 0.00 73 1014.1
20260901113819 15 249 1.6 8.0 0.00 0.00 0.00 72 1014.1
20260901113312 15 249 3.2 8.0 0.00 0.00 0.00 72 1014.2
20260901112807 15 206 3.2 11.3 0.00 0.00 0.00 72 1014.1
20260901112300 15 195 3.2 11.3 0.00 0.00 0.00 72 1014.1
20260901111755 15 193 1.6 6.4 0.00 0.00 0.00 72 1014.2
20260901111249 15 193 1.6 6.4 0.00 0.00 0.00 71 1014.2
20260901110755 15 207 1.6 9.7 0.00 0.00 0.00 71 1014.3
20260901110236 15 208 4.8 11.3 0.00 0.00 0.00 71 1014.2
20260901105730 15 208 4.8 11.3 0.00 0.00 0.00 71 1014.1
20260901105225 15 247 1.6 11.3 0.00 0.00 0.00 71 1014.1
20260901104719 15 233 0.0 6.4 0.00 0.00 0.00 71 1014.1
20260901104213 15 231 0.0 6.4 0.00 0.00 0.00 71 1014.2
20260901103708 15 231 1.6 4.8 0.00 0.00 0.00 71 1014.1
20260901103200 15 231 1.6 6.4 0.00 0.00 0.00 71 1014.1
20260901102754 15 231 1.6 9.7 0.00 0.00 0.00 71 1014.0
20260901102730 15 231 0.0 6.4 0.00 0.00 0.00 71 1014.0
20260901101643 15 231 1.6 9.7 0.00 0.00 0.00 71 1014.0
20260901101136 15 209 0.0 4.8 0.00 0.00 0.00 71 1014.0
20260901100631 15 208 0.0 4.8 0.00 0.00 0.00 71 1013.9
20260901100125 15 208 0.0 0.0 0.00 0.00 0.00 71 1013.9
20260901095619 15 208 0.0 4.8 0.00 0.00 0.00 71 1013.9
20260901095112 15 208 0.0 4.8 0.00 0.00 0.00 71 1013.9
20260901094607 15 208 0.0 6.4 0.00 0.00 0.00 71 1013.9
20260901094350 15 209 1.6 6.4 0.00 0.00 0.00 71 1013.9
20260901093555 15 208 1.6 8.0 0.00 0.00 0.00 71 1013.9
20260901093048 15 208 3.2 9.7 0.00 0.00 0.00 71 1014.0
20260901092542 15 208 3.2 9.7 0.00 0.00 0.00 71 1014.0
20260901092037 15 209 3.2 9.7 0.00 0.00 0.00 71 1014.1
20260901091530 15 209 3.2 8.0 0.00 0.00 0.00 71 1014.0
20260901091025 15 208 3.2 11.3 0.00 0.00 0.00 71 1014.1
20260901090812 15 219 4.8 11.3 0.00 0.00 0.00 72 1014.0
20260901090012 15 254 4.8 12.9 0.00 0.00 0.00 72 1014.1
20260901085507 16 216 3.2 12.9 0.00 0.00 0.00 72 1014.1
20260901085016 15 246 1.6 9.7 0.00 0.00 0.00 71 1014.1
20260901084455 15 234 3.2 16.1 0.00 0.00 0.00 72 1014.1
20260901083949 16 200 6.4 16.1 0.00 0.00 0.00 72 1014.0
20260901083443 15 199 6.4 16.1 0.00 0.00 0.00 71 1014.1
20260901082937 15 214 3.2 16.1 0.00 0.00 0.00 72 1014.1
20260901082431 15 227 1.6 8.0 0.00 0.00 0.00 72 1014.1
20260901081925 15 227 0.0 8.0 0.00 0.00 0.00 72 1014.1
20260901081418 16 227 0.0 3.2 0.00 0.00 0.00 72 1014.1
20260901080913 16 227 1.6 6.4 0.00 0.00 0.00 72 1014.0
20260901080406 15 227 1.6 6.4 0.00 0.00 0.00 72 1014.1
20260901075901 16 228 1.6 8.0 0.00 0.00 0.00 72 1014.1
20260901075355 15 175 3.2 12.9 0.00 0.00 0.00 72 1014.0
20260901074848 15 226 3.2 12.9 0.00 0.00 0.00 72 1014.0
20260901074343 16 226 1.6 6.4 0.00 0.00 0.00 72 1014.0
20260901073837 15 227 3.2 9.7 0.00 0.00 0.00 72 1014.0
20260901073331 15 226 1.6 9.7 0.00 0.00 0.00 72 1013.9
20260901072837 15 210 1.6 11.3 0.00 0.00 0.00 72 1014.0
20260901072610 15 209 3.2 11.3 0.00 0.00 0.00 72 1014.0
20260901072105 15 224 4.8 11.3 0.00 0.00 0.00 72 1014.0
20260901071306 15 197 4.8 11.3 0.00 0.00 0.00 72 1013.9
20260901070800 15 250 4.8 11.3 0.00 0.00 0.00 72 1013.9
20260901070254 15 258 6.4 14.5 0.00 0.00 0.00 72 1014.0
20260901065747 15 216 6.4 16.1 0.00 0.00 0.00 73 1014.0
20260901065242 15 214 6.4 16.1 0.00 0.00 0.00 73 1013.9
20260901064736 15 222 6.4 14.5 0.00 0.00 0.00 73 1014.1
20260901064229 15 247 6.4 16.1 0.00 0.00 0.00 73 1014.0
20260901063723 15 202 6.4 16.1 0.00 0.00 0.00 73 1014.0
20260901063218 15 187 8.0 17.7 0.00 0.00 0.00 73 1013.9
20260901062712 15 203 8.0 19.3 0.00 0.00 0.00 73 1013.9
20260901062205 15 268 9.7 25.7 0.00 0.00 0.00 73 1013.9
20260901061659 15 233 8.0 25.7 0.00 0.00 0.00 73 1013.9
20260901061153 15 216 8.0 16.1 0.00 0.00 0.00 72 1014.0
20260901060648 15 207 9.7 22.5 0.00 0.00 0.00 72 1014.1
20260901060451 15 256 12.9 25.7 0.00 0.00 0.00 72 1014.1
20260901055636 15 218 11.3 25.7 0.00 0.00 0.00 73 1014.1
20260901055130 15 264 9.7 24.1 0.00 0.00 0.00 73 1014.1
20260901054623 15 199 9.7 24.1 0.00 0.00 0.00 73 1014.1
20260901054412 15 206 11.3 29.0 0.00 0.00 0.00 74 1014.1
20260901053612 15 234 9.7 29.0 0.00 0.00 0.00 74 1014.1
20260901053106 15 231 6.4 17.7 0.00 0.00 0.00 74 1014.1
20260901052600 15 224 6.4 19.3 0.00 0.00 0.00 74 1014.0
20260901052054 15 227 6.4 19.3 0.00 0.00 0.00 74 1014.0
20260901051550 15 177 4.8 16.1 0.00 0.00 0.00 74 1014.0
20260901051048 15 227 6.4 16.1 0.00 0.00 0.00 74 1014.0
20260901050549 15 244 4.8 16.1 0.00 0.00 0.00 74 1014.0
20260901050101 15 235 3.2 14.5 0.00 0.00 0.00 74 1013.9
20260901045548 15 200 4.8 17.7 0.00 0.00 0.00 74 1014.0
20260901045048 15 270 4.8 17.7 0.00 0.00 0.00 74 1014.0
20260901044548 15 241 4.8 16.1 0.00 0.00 0.00 74 1014.0
20260901044047 15 262 4.8 16.1 0.00 0.00 0.00 74 1014.0
20260901043546 15 280 3.2 16.1 0.00 0.00 0.00 74 1014.0
20260901043047 15 241 1.6 11.3 0.00 0.00 0.00 74 1014.0
20260901042548 15 220 0.0 0.0 0.00 0.00 0.00 74 1014.0
20260901042048 15 220 0.0 3.2 0.00 0.00 0.00 74 1013.9
20260901041548 15 220 1.6 6.4 0.00 0.00 0.00 74 1013.9
20260901041059 15 220 4.8 19.3 0.00 0.00 0.00 75 1013.9
20260901040545 15 220 3.2 19.3 0.00 0.00 0.00 74 1013.8
20260901040044 15 264 4.8 19.3 0.00 0.00 0.00 74 1013.7
20260901035545 15 300 6.4 19.3 0.00 0.00 0.00 74 1013.7
20260901035046 15 245 4.8 12.9 0.00 0.00 0.00 74 1013.6
20260901034539 15 220 4.8 19.3 0.00 0.00 0.00 74 1013.6
20260901034034 15 261 4.8 12.9 0.00 0.00 0.00 74 1013.6
20260901033527 15 248 6.4 16.1 0.00 0.00 0.00 74 1013.5
20260901033021 15 210 6.4 16.1 0.00 0.00 0.00 74 1013.4
20260901032811 15 245 6.4 16.1 0.00 0.00 0.00 74 1013.4
20260901032009 15 221 4.8 14.5 0.00 0.00 0.00 74 1013.3
20260901031758 15 228 4.8 14.5 0.00 0.00 0.00 74 1013.3
20260901030958 15 253 4.8 17.7 0.00 0.00 0.00 74 1013.2
20260901030454 15 248 6.4 17.7 0.00 0.00 0.00 74 1013.2
20260901025954 15 267 8.0 20.9 0.00 0.00 0.00 74 1013.2
20260901025453 16 246 6.4 20.9 0.00 0.00 0.00 74 1013.1
20260901024955 16 241 6.4 20.9 0.00 0.00 0.00 74 1013.1